カタログに戻る

STARLINK-34540

運用中通信SSO
NORAD 65657·PAYLOAD·🇺🇸 United States

打ち上げ Sep 19, 2025 から Vandenberg Space Force Base

Loading…

次のパス (今後24時間)

TLE

最新Source: CelesTrak SupGP

元期: Sep 15, 2026, 02:37 UTC

1 65657C 25211F   26258.10951389  .00006503  00000+0  20187-3 0  2581
2 65657  97.2835 298.3751 0000983  89.6416 295.5454 15.33435686    13

AllMySatでSTARLINK-34540をリアルタイム追跡

Download on the App Store